Simultaneous Nadir Overpasses (SNOs) Predictions

Prediction of SNOs between AQUA and NOAA-19 Satellite Orbit:

Table of predicted SNOs for the next 14.0 days since TLE Epoch: 2/9/2018
Index Date (AQUA) Time (AQUA) Lat,Lon (AQUA) SZA (AQUA ) Date (NOAA-19) Time (NOAA-19) Lat,Lon (NOAA-19) SZA (NOAA-19 ) Distance(km) Time Diff (sec)
1 02/11/2018 19:04:11 -80.86, 34.55 82.96 02/11/2018 19:03:32 -80.87, 34.45 82.92 1.81 39
2 02/11/2018 19:53:38 80.87,-157.89 97.05 02/11/2018 19:54:27 80.88,-157.74 97.02 2.75 49
3 02/14/2018 00:37:56 80.85, 131.22 96.29 02/14/2018 00:37:08 80.87, 131.06 96.34 3.04 48
4 02/14/2018 01:27:23 -80.87, -61.33 83.70 02/14/2018 01:28:11 -80.87, -61.16 83.73 3.06 48
5 02/16/2018 06:11:41 -80.85,-132.22 84.48 02/16/2018 06:10:51 -80.87,-132.16 84.45 1.84 50
6 02/16/2018 07:01:08 80.87, 35.27 95.54 02/16/2018 07:01:48 80.87, 35.19 95.53 1.36 40
7 02/18/2018 11:45:26 80.86, -35.68 94.75 02/18/2018 11:44:28 80.86, -35.67 94.78 1.00 58
8 02/18/2018 12:34:53 -80.86, 131.85 85.25 02/18/2018 12:35:31 -80.87, 131.77 85.26 1.37 38
9 02/20/2018 17:19:11 -80.85, 60.91 86.06 02/20/2018 17:18:10 -80.87, 61.08 86.04 3.20 61
10 02/20/2018 18:08:38 80.87,-131.67 93.97 02/20/2018 18:09:08 80.87,-131.58 93.94 1.66 30
11 02/22/2018 22:52:56 80.87, 157.34 93.16 02/22/2018 22:51:48 80.86, 157.51 93.17 3.05 68




NCC Satellite Simultaneous Nadir Overpasses (SNOs) Prediction Service
